Lexington Weather

Lexington, Massachusetts, USA

36°F
1/28/2020 6:52am 
  • Lexington Conditions: Overcast
  • Temperature: 35.6°F / 2.0°CColder 0.7°F than last hour.
  • Dew Point: 29.1°FDecreased 0.7°Fsince last hour.
  • Relative Humidity: 77
  • Wind: Wind from NW NW 1 mph, 10-min avg: 1 mph, gust: 4 mph
  • Barometer: 29.66 inRising 0.02  inHg/hr Rising Slowly
  • Visibility: 10 miles
  • Rain Today: 0.00 in
  •   

Regional Weather Roundup
for Boston / Norton, MA

        
000
ASUS41 KBOX 270010
RWRBOX

REGIONAL WEATHER ROUNDUP
NATIONAL WEATHER SERVICE BOSTON/NORTON MA
700 PM EST SUN JAN 26 2020

NOTE:  "FAIR" INDICATES FEW OR NO CLOUDS BELOW 12,000 FEET WITH NO 
SIGNIFICANT WEATHER AND/OR OBSTRUCTIONS TO VISIBILITY.

MAZALL-270100-
EASTERN MASSACHUSETTS
  
CITY           SKY/WX    TMP DP  RH WIND       PRES   REMARKS
BOSTON         FAIR      43  27  53 SW10      29.69R                  
6HR MIN TEMP:  43; 6HR MAX TEMP:  51;                                

BEVERLY        FAIR      39  26  59 W8        29.67R                  
LAWRENCE       FAIR      39  26  59 SW9       29.68S                  
BEDFORD        FAIR      39  25  57 W6        29.68R                  
BLUE HILL        N/A     36  26  67 W15       29.66S WCI  27          
NORWOOD        FAIR      42  25  50 SW6       29.70R                  
MARSHFIELD     FAIR      39  32  75 CALM      29.70R                  
PLYMOUTH       FAIR      38  29  70 W9        29.71R WCI  31          
TAUNTON        FAIR      38  27  64 W6        29.71R                  
NEW BEDFORD    FAIR      35  28  75 W5        29.72R WCI  31          
$$

MAZALL-270100-
CAPE COD AND THE ISLANDS
  
CITY           SKY/WX    TMP DP  RH WIND       PRES   REMARKS
FALMOUTH       CLEAR     37  28  70 W9        29.71R WCI  31          
HYANNIS        FAIR      41  32  70 W5        29.70R                  
CHATHAM        FAIR      39  34  82 W5        29.72R                  
PROVINCETOWN   FAIR      41  33  73 W14       29.70R                  
NANTUCKET      FAIR      41  34  76 W12       29.72R                  
MARTHAS VNYRD  FAIR      41  33  73 W8        29.72R                  
$$
 
MAZALL-270100-
CENTRAL AND WESTERN MASSACHUSETTS
  
CITY           SKY/WX    TMP DP  RH WIND       PRES   REMARKS
WORCESTER      FAIR      35  25  66 SW9       29.67R WCI  28          
6HR MIN TEMP:  35; 6HR MAX TEMP:  42; 6HR PCP: TRACE;                

FITCHBURG      FAIR      34  26  72 CALM      29.68R                  
ORANGE         CLOUDY    37  27  67 S7        29.69R WCI  32          
SPRINGFIELD    CLOUDY    36  27  70 S3        29.70R                  
WESTFIELD      CLOUDY    35  27  72 SW5       29.71R WCI  31          
NORTH ADAMS    NOT AVBL                                               
PITTSFIELD     CLOUDY    37  27  67 W10       29.66R WCI  30          
$$
 
RIZALL-270100-
RHODE ISLAND
  
CITY           SKY/WX    TMP DP  RH WIND       PRES   REMARKS
PROVIDENCE     MOCLDY    39  29  67 CALM      29.73R                  
6HR MIN TEMP:  39; 6HR MAX TEMP:  50;                                

NEWPORT        FAIR      40  28  62 CALM      29.72R                  
BLOCK ISLAND   FAIR      40  32  73 W14       29.75R                  
SMITHFIELD     FAIR      36  28  73 CALM      29.71R                  
WESTERLY       CLOUDY    45  28  51 W12G18    29.74S                  
$$
 
CTZALL-270100-
CONNECTICUT
  
CITY           SKY/WX    TMP DP  RH WIND       PRES   REMARKS
BRADLEY INTL   MOCLDY    38  26  62 SW7       29.72R                  
6HR MIN TEMP:  37; 6HR MAX TEMP:  48;                                

HARTFORD       CLOUDY    41  27  57 SW6       29.74R                  
BRIDGEPORT     MOCLDY    41  34  76 SW5       29.76S                  
DANBURY        CLOUDY    39  28  64 SW6       29.75S                  
GROTON         FAIR      41  31  67 W10       29.74S                  
NEW HAVEN      FAIR      42  31  64 SW5       29.76R                  
CHESTER        NOT AVBL                                               
MERIDEN        FAIR      35  26  69 SE7       29.75R WCI  29          
WILLIMANTIC    FAIR      34  29  82 CALM      29.74R                  
OXFORD         CLOUDY    37  27  67 SW5       29.73S                  
$$

MEZ002-015-021-024-NHZ003-005-008-011-012-014-VTZ005-008-270100-
NORTHERN NEW ENGLAND
  
CITY           SKY/WX    TMP DP  RH WIND       PRES   REMARKS
PORTLAND ME    FAIR      41  27  57 W10       29.61R                  
6HR MIN TEMP:  40; 6HR MAX TEMP:  47;                                

BANGOR ME      LGT RAIN  38  36  92 SW6       29.54R                  
CONCORD NH     FAIR      35  25  66 CALM      29.64S                  
MANCHESTER NH  FAIR      40  26  57 W3        29.65R                  
NASHUA NH      FAIR      37  29  72 VRB3      29.67S                  
PORTSMOUTH NH  PTCLDY    38  25  59 SW6       29.63R                  
JAFFREY NH     CLOUDY    36  27  69 S5        29.65R                  
KEENE NH       CLOUDY    37  29  72 S3        29.67S                  
BURLINGTON VT  FLURRIES  34  32  92 S7        29.60R WCI  28          
MT. WASHINGTON BLWGSNOW  14  14 100 W49         N/A  VSB 0   WCI -11  
$$

NYZ052-076-270100-
EASTERN NEW YORK
  
CITY           SKY/WX    TMP DP  RH WIND       PRES   REMARKS
ALBANY         CLOUDY    40  29  64 SW5       29.72R                  
6HR MIN TEMP:  39; 6HR MAX TEMP:  43; 6HR PCP: TRACE;                

NEW YORK CITY  MOCLDY    43  24  47 W16       29.78S                  
6HR MIN TEMP:  43; 6HR MAX TEMP:  46;                                

$$
 
ANZALL-270100-
MARINE OBSERVATIONS
  
STATION/POSITION TIME  TEMP    WIND        PRES    VSBY  WAVE
                       AIR SEA DIR/SP/G                  HT/PER
                 (UTC) (F)     (DEG/KT/KT) (MB)    (MI)  (FT/S)
BOSTON BUOY      2350   42 43  240/ 12/ 16 1004.8R         4/ 9
BUZZARDS BAY     2300   42     270/ 20/ 22 1006.7R
NANTUCKET SOUND  2340                        N/A           2/ 4
MASS BAY-STELLWA 2304   42 42  290/ 16/ 19 1002.7R  1 7/8  7/11
ISLE OF SHOALS   2300   42     260/ 18/ 19 1003.1R
S OF BLOCK IS    0000      44                N/A           7/11
$$

......................KEY.........................
  SKY/WX - SKY CONDITION/PRESENT WEATHER
  TMP    - TEMPERATURE IN FAHRENHEIT
  DWPT   - DEWPOINT IN FAHRENHEIT
  RH     - RELATIVE HUMIDITY IN PERCENT
  WIND   - DIRECTION AND SPEED IN MPH
  PRES   - MEAN SEA LEVEL PRESSURE IN INCHES OF HG
  WCI    - WIND CHILL INDEX
  VSB    - VISIBILITY IN MILES
  HX     - HEAT INDEX
  TC     - TEMPERATURE IN CELSIUS
  VRB    - VARIABLE WIND DIRECTION
  N/A    - NOT AVAILABLE
  
      

Other recent Regional Weather Roundups

Tue Jan 28, 6:10am

Tue Jan 28, 6:01am

Tue Jan 28, 5:10am

Tue Jan 28, 5:00am

Tue Jan 28, 4:10am

Tue Jan 28, 4:00am

Tue Jan 28, 3:10am

Tue Jan 28, 3:01am

Tue Jan 28, 2:10am

Tue Jan 28, 2:00am

Tue Jan 28, 1:10am

Tue Jan 28, 1:00am

Tue Jan 28, 12:10am

Tue Jan 28, 12:01am

Mon Jan 27, 11:10pm

Mon Jan 27, 11:00pm

Mon Jan 27, 10:10pm

Mon Jan 27, 10:00pm

Mon Jan 27, 9:10pm

Mon Jan 27, 9:00pm

Mon Jan 27, 8:10pm

Mon Jan 27, 8:01pm

Mon Jan 27, 7:10pm

Mon Jan 27, 7:00pm

Mon Jan 27, 6:10pm

Mon Jan 27, 6:00pm

Mon Jan 27, 5:10pm

Mon Jan 27, 5:00pm

Mon Jan 27, 4:10pm

Mon Jan 27, 4:00pm

Mon Jan 27, 3:10pm

Mon Jan 27, 3:00pm

Mon Jan 27, 2:10pm

Mon Jan 27, 2:00pm

Mon Jan 27, 1:10pm

Mon Jan 27, 1:00pm

Mon Jan 27, 12:10pm

Mon Jan 27, 12:00pm

Mon Jan 27, 11:10am

Mon Jan 27, 11:01am

Mon Jan 27, 10:10am

Mon Jan 27, 10:00am

Mon Jan 27, 9:10am

Mon Jan 27, 9:00am

Mon Jan 27, 8:10am

Mon Jan 27, 8:00am

Mon Jan 27, 7:10am

Mon Jan 27, 7:00am

Mon Jan 27, 6:10am

Mon Jan 27, 6:00am

Mon Jan 27, 5:10am

Mon Jan 27, 5:00am

Mon Jan 27, 4:10am

Mon Jan 27, 4:01am

Mon Jan 27, 3:10am

Mon Jan 27, 3:00am

Mon Jan 27, 2:10am

Mon Jan 27, 2:00am

Mon Jan 27, 1:10am

Mon Jan 27, 1:00am

Mon Jan 27, 12:10am

Mon Jan 27, 12:00am

Sun Jan 26, 11:10pm

Sun Jan 26, 11:00pm

Sun Jan 26, 10:10pm

Sun Jan 26, 10:00pm

Sun Jan 26, 9:10pm

Sun Jan 26, 9:01pm

Sun Jan 26, 8:10pm

Sun Jan 26, 8:00pm

Sun Jan 26, 7:00pm

Sun Jan 26, 6:10pm

Sun Jan 26, 6:01pm

Sun Jan 26, 5:10pm

Sun Jan 26, 5:01pm

Sun Jan 26, 4:10pm

Sun Jan 26, 4:00pm

Sun Jan 26, 3:10pm

Sun Jan 26, 3:01pm

Sun Jan 26, 2:10pm

Sun Jan 26, 2:01pm

Sun Jan 26, 1:10pm

Sun Jan 26, 1:00pm

Sun Jan 26, 12:10pm

Sun Jan 26, 12:00pm

Sun Jan 26, 11:10am

Sun Jan 26, 11:01am

Sun Jan 26, 10:10am

Sun Jan 26, 10:01am

Sun Jan 26, 9:10am

Sun Jan 26, 9:00am

Sun Jan 26, 8:10am

Sun Jan 26, 8:00am

Sun Jan 26, 7:10am

Sun Jan 26, 7:00am

Sun Jan 26, 6:10am

Sun Jan 26, 6:00am

Sun Jan 26, 5:10am

Sun Jan 26, 5:00am

Sun Jan 26, 4:10am

Sun Jan 26, 4:01am

Sun Jan 26, 3:10am

Sun Jan 26, 3:01am

Sun Jan 26, 2:10am

Sun Jan 26, 2:00am

Sun Jan 26, 1:10am

Sun Jan 26, 1:00am

Sun Jan 26, 12:10am

Sun Jan 26, 12:00am

Sat Jan 25, 11:10pm

Sat Jan 25, 11:00pm

Sat Jan 25, 10:10pm

Sat Jan 25, 10:01pm

Sat Jan 25, 9:10pm

Sat Jan 25, 9:01pm

Sat Jan 25, 8:10pm

Sat Jan 25, 8:01pm

Sat Jan 25, 7:10pm

Sat Jan 25, 7:01pm

Sat Jan 25, 6:10pm

Sat Jan 25, 6:01pm

Sat Jan 25, 5:10pm

Sat Jan 25, 5:01pm

Sat Jan 25, 4:10pm

Sat Jan 25, 4:00pm

Sat Jan 25, 3:10pm

Sat Jan 25, 3:01pm

Sat Jan 25, 2:10pm

Sat Jan 25, 2:00pm

Sat Jan 25, 1:10pm

Sat Jan 25, 1:00pm

Sat Jan 25, 12:10pm

Sat Jan 25, 12:00pm

Sat Jan 25, 11:10am

Sat Jan 25, 11:00am

Sat Jan 25, 10:10am

Sat Jan 25, 10:00am

Sat Jan 25, 9:10am

Sat Jan 25, 9:00am

Sat Jan 25, 8:10am

Sat Jan 25, 8:01am

Sat Jan 25, 7:10am

Sat Jan 25, 7:00am

Meta data:

ID: ff8c10a7-dadb-4665-9d3d-90ff85fa1524
Link: https://api.weather.gov/products/ff8c10a7-dadb-4665-9d3d-90ff85fa1524